Weather History for KBMQ - May, 2013

Change the Weather History Date:

Tuesday, May 28, 2013

  Actual Average Record
Temperature  
Mean Temperature 79 °F -  
Max Temperature 88 °F 86 °F 93 °F (1998)
Min Temperature 71 °F 65 °F 60 °F (2003)
Cooling Degree Days 14    
Growing Degree Days 29 (Base 50)    
Moisture  
Dew Point 66 °F    
Average Humidity 69    
Maximum Humidity 84    
Minimum Humidity 48    
Precipitation  
Precipitation 0.00 in - - ()
Sea Level Pressure  
Sea Level Pressure 29.84 in    
Wind  
Wind Speed 12 mph (SSE)    
Max Wind Speed 20 mph    
Max Gust Speed 31 mph    
Visibility 9 miles    
Events      
Averages and records for this station are not official NWS values.
T = Trace of Precipitation, MM = Missing Value Source: NWS Daily Summary

Daily Weather History Graph

Daily Weather History Graph

Search for Another Location

Airport or City:

Trip Planner

Search our weather history database for the weather conditions in past years. The results will help you decide how hot, cold, wet, or windy it might be!

Date:

Astronomy

May. 28, 2013 Rise Set
Actual Time 6:31 AM CDT 8:29 PM CDT
Civil Twilight 6:04 AM CDT 8:56 PM CDT
Nautical Twilight 5:31 AM CDT 9:29 PM CDT
Astronomical Twilight 4:56 AM CDT 10:04 PM CDT
Moon No Moon Rise 10:15 AM CDT (5/28)
Length of Visible Light 14h 51m
Length of Day
13h 57m
Waning Gibbous, 82% of the Moon is Illuminated
May 28
Waning Gibbous
May 31
Last Quarter
Jun 8
New
Jun 16
First Quarter
Jun 23
Full

Hourly Weather History & Observations

Time (CDT) Temp. Heat Index Dew Point Humidity Pressure Visibility Wind Dir Wind Speed Gust Speed Precip Events Conditions
12:53 AM 73.9 °F - 64.9 °F 73% 29.87 in 10.0 mi South 10.4 mph 19.6 mph N/A   Clear
1:48 AM 71.6 °F - 66.2 °F 83% 29.91 in 9.0 mi South 11.5 mph 23.0 mph N/A   Mostly Cloudy
1:53 AM 72.0 °F - 66.0 °F 81% 29.86 in 9.0 mi South 12.7 mph 23.0 mph N/A   Mostly Cloudy
2:08 AM 72.0 °F - 66.0 °F 81% 29.90 in 9.0 mi South 12.7 mph 20.7 mph N/A   Scattered Clouds
2:18 AM 72.0 °F - 66.0 °F 81% 29.90 in 9.0 mi South 9.2 mph 20.7 mph N/A   Mostly Cloudy
2:53 AM 71.1 °F - 66.0 °F 84% 29.84 in 9.0 mi SSE 10.4 mph 17.3 mph N/A   Mostly Cloudy
3:53 AM 71.1 °F - 66.0 °F 84% 29.82 in 9.0 mi South 12.7 mph 20.7 mph N/A   Overcast
4:53 AM 71.1 °F - 64.9 °F 81% 29.83 in 9.0 mi South 11.5 mph 20.7 mph N/A   Overcast
5:53 AM 71.1 °F - 64.9 °F 81% 29.83 in 9.0 mi South 8.1 mph - N/A   Overcast
6:53 AM 71.1 °F - 64.9 °F 81% 29.84 in 8.0 mi South 9.2 mph - N/A   Overcast
7:53 AM 72.0 °F - 66.0 °F 81% 29.85 in 8.0 mi SSE 8.1 mph - N/A   Overcast
8:53 AM 73.9 °F - 66.0 °F 76% 29.85 in 9.0 mi South 17.3 mph 21.9 mph N/A   Overcast
9:50 AM 77.0 °F - 64.4 °F 65% 29.91 in 10.0 mi South 16.1 mph 31.1 mph N/A   Mostly Cloudy
9:53 AM 77.0 °F - 64.9 °F 66% 29.86 in 10.0 mi South 19.6 mph 31.1 mph N/A   Mostly Cloudy
10:53 AM 80.1 °F 81.9 °F 64.9 °F 60% 29.86 in 9.0 mi South 17.3 mph 26.5 mph N/A   Mostly Cloudy
11:53 AM 81.0 °F 82.5 °F 64.0 °F 56% 29.86 in 9.0 mi South 19.6 mph 29.9 mph N/A   Mostly Cloudy
12:53 PM 82.9 °F 84.4 °F 64.0 °F 53% 29.85 in 10.0 mi SSE 12.7 mph 19.6 mph N/A   Overcast
1:53 PM 84.0 °F 86.3 °F 66.0 °F 55% 29.82 in 10.0 mi SSE 10.4 mph 20.7 mph N/A   Overcast
2:53 PM 86.0 °F 88.8 °F 66.9 °F 53% 29.81 in 9.0 mi South 11.5 mph 18.4 mph N/A   Mostly Cloudy
3:53 PM 86.0 °F 88.8 °F 66.9 °F 53% 29.79 in 9.0 mi SSE 12.7 mph 26.5 mph N/A   Mostly Cloudy
4:53 PM 87.1 °F 89.9 °F 66.9 °F 51% 29.77 in 10.0 mi South 12.7 mph 20.7 mph N/A   Partly Cloudy
5:53 PM 87.1 °F 88.9 °F 64.9 °F 48% 29.76 in 10.0 mi SE 15.0 mph 21.9 mph N/A   Scattered Clouds
6:53 PM 84.0 °F 85.8 °F 64.9 °F 53% 29.75 in 10.0 mi SSE 11.5 mph 23.0 mph N/A   Clear
7:53 PM 82.0 °F 84.5 °F 66.9 °F 60% 29.76 in 10.0 mi SE 15.0 mph 23.0 mph N/A   Partly Cloudy
8:53 PM 79.0 °F - 66.9 °F 66% 29.79 in 10.0 mi SE 11.5 mph 21.9 mph N/A   Partly Cloudy
9:53 PM 78.1 °F - 66.9 °F 68% 29.81 in 10.0 mi SSE 11.5 mph 24.2 mph N/A   Mostly Cloudy
10:53 PM 77.0 °F - 68.0 °F 74% 29.83 in 10.0 mi SSE 9.2 mph 19.6 mph N/A   Overcast
11:53 PM 75.0 °F - 66.9 °F 76% 29.87 in 10.0 mi SSE 11.5 mph 18.4 mph N/A   Overcast